West Palm Beach, FL

8:11 PM EDT on July 26, 2017 (GMT -0400)
BANYAN CAY GOLF - Zaretsky Law Group - West Palm Beach | | Change Station

Elev 60 ft 26.73 °N, 80.08 °W | Updated 12 minutes ago

Partly Cloudy
Partly Cloudy
85.6 °F
Feels Like 99 °F
N
2.0
Wind Variable Wind from ESE
Gusts 5.0 mph

Today
High -- | Low -- °F
--% Chance of Precip.
Yesterday
High -- | Low -- °F
Precip. -- in
Pressure 30.04 in
Visibility 10.0 miles
Clouds Scattered Clouds 3100 ft
Scattered Clouds 25000 ft
Heat Index 99 °F
Dew Point 79 °F
Humidity 80%
Rainfall 0.00 in
Snow Depth Not available.
6:42 AM 8:11 PM
Waxing Crescent, 16% visible
METAR KPBI 262353Z 11008KT 10SM SCT031 SCT250 30/25 A3003 RMK AO2 SLP170 T03000250 10328 20300 55004
Pressure 30.04 in
Visibility 10.0 miles
Clouds Scattered Clouds 3100 ft
Scattered Clouds 25000 ft
Heat Index 99 °F
Dew Point 79 °F
Humidity 80%
Rainfall 0.00 in
Snow Depth Not available.
6:42 AM 8:11 PM
Waxing Crescent, 16% visible
METAR KPBI 262353Z 11008KT 10SM SCT031 SCT250 30/25 A3003 RMK AO2 SLP170 T03000250 10328 20300 55004

Get Severe Weather Alerts

Thanks for signing up!

Be on the lookout for a verification email in your inbox.

You'll start receiving the daily forecast at 6 AM.

×

10-Day Weather Forecast

Almanac

Astronomy

Jul. 26, 2017 Rise Set
Actual Time
Civil Twilight
Nautical Twilight
Astronomical Twilight
Moon
Length of Visible Light
Length of Day
Tomorrow will be .
, % of the Moon is Illuminated

Today's Extremes

State Highs State Lows

Community

WunderPhotos

Category 6

Welcome to Category 6. This is the collective home for Weather Underground's featured writeups by Dr. Jeff Masters (right), Bob Henson (left), Chris Burt, and other regular contributors.

Nearby

Air Quality

  Air Quality AQ Index Pollutant
Not available.

Snow Depth

Station Depth Elevation

Earthquake Activity

City Distance Mag. Time & Date
Minimum magnitude displayed is 2.5.

Coastal Water Temperatures

Place Temperature

Stations

Nearby Weather Stations

Station Location Temp. Windchill Dew Point Humidity Wind Precip. Elev Updated Type
                   

Watches & Warnings

There are currently no watches in effect.